This demonstration page uses our WeatherBlox Daily Observations layout. Learn more.

Left ArrowRight Arrow

Hourly Observations for December 7, 2015

Temp ( °F °C ) Dew Point ( °F °C ) Humidity (%) Winds ( mph kmh ) Pressure ( in mb ) Visibility ( mi km ) Precip ( " mm )
12:00 am 00:00 Cloudy with Mist and Fog 48 9 45 7 87 87 NW 3 6 30.33 1027 4 6 0.00 0.00
12:09 am 00:09 Cloudy with Mist and Fog 48 8.9 45 7.2 89 89 NW 3 6 30.33 1027 4 6 0.00 0.00
12:28 am 00:28 Cloudy with Mist and Fog 48 9 45 7 87 87 NNE 3 6 30.30 1026 4 6 0.00 0.00
12:49 am 00:49 Cloudy with Mist and Fog 48 9 45 7 87 87 N 3 6 30.30 1026 3 5 0.00 0.00
12:53 am 00:53 Cloudy with Mist and Fog 48 8.9 45 7.2 89 89 N 3 6 30.29 1026 3 5 0.00 0.00
1:18 am 01:18 Cloudy with Mist and Fog 48 9 45 7 87 87 W 3 6 30.30 1026 3 5 0.00 0.00
1:32 am 01:32 Cloudy with Mist and Fog 48 9 45 7 87 87 WNW 5 7 30.30 1026 3 4 0.00 0.00
1:48 am 01:48 Cloudy with Mist and Fog 48 9 45 7 87 87 WNW 3 6 30.30 1026 3 5 0.00 0.00
1:53 am 01:53 Cloudy with Mist and Fog 48 8.9 45 7.2 89 89 W 3 6 30.29 1026 3 5 0.00 0.00
2:10 am 02:10 Cloudy with Mist and Fog 48 9 45 7 87 87 Calm 30.30 1026 5 8 0.00 0.00
2:27 am 02:27 Cloudy with Mist and Fog 48 9 45 7 87 87 Calm 30.30 1026 5 8 0.00 0.00
2:39 am 02:39 Cloudy with Mist and Fog 48 8.9 45 7.2 89 89 Calm 30.27 1025 4 6 0.00 0.00
2:53 am 02:53 Cloudy with Mist and Fog 49 9.4 45 7.2 86 86 Calm 30.28 1025 3 5 0.00 0.00
3:20 am 03:20 Cloudy with Mist and Fog 48 9 45 7 87 87 Calm 30.27 1025 3 5 0.00 0.00
3:36 am 03:36 Cloudy with Mist and Fog 48 8.9 45 7.2 89 89 Calm 30.27 1025 3 4 0.00 0.00
3:53 am 03:53 Cloudy with Mist and Fog 48 8.9 45 7.2 89 89 WNW 3 6 30.27 1025 3 4 0.00 0.00
4:41 am 04:41 Cloudy with Mist and Fog 49 9.4 45 7.2 86 86 Calm 30.27 1025 2 3 0.00 0.00
4:53 am 04:53 Cloudy with Mist and Fog 48 8.9 45 7.2 89 89 Calm 30.26 1025 2 3 0.00 0.00
5:07 am 05:07 Cloudy with Mist and Fog 48 8.9 45 7.2 89 89 Calm 30.27 1025 2 3 0.00 0.00
5:15 am 05:15 Cloudy with Mist and Fog 48 8.9 45 7.2 89 89 Calm 30.24 1024 2 3 0.00 0.00
5:34 am 05:34 Cloudy with Mist and Fog 48 9 45 7 87 87 Calm 30.27 1025 2 3 0.00 0.00
5:53 am 05:53 Cloudy with Mist and Fog 49 9.4 45 7.2 86 86 Calm 30.27 1025 3 4 0.00 0.00
6:12 am 06:12 Cloudy with Mist and Fog 48 9 46 8 94 94 Calm 30.27 1025 3 4 0.00 0.00
6:25 am 06:25 Cloudy with Light Rain 48 8.9 46 7.8 93 93 Calm 30.27 1025 3 4 0.00 0.03
6:37 am 06:37 Cloudy with Mist and Fog 49 9.4 46 7.8 90 90 Calm 30.27 1025 3 4 0.01 0.25
6:50 am 06:50 Cloudy with Mist and Fog 48 9 46 8 94 94 Calm 30.27 1025 3 5 0.00 0.00
6:53 am 06:53 Cloudy with Mist and Fog 49 9.4 46 7.8 90 90 Calm 30.27 1025 4 6 0.01 0.25
7:00 am 07:00 Cloudy with Light Rain 48 9 46 8 94 94 NNE 3 6 30.27 1025 4 6 0.00 0.00
7:27 am 07:27 Cloudy with Mist and Fog 49 9.4 46 7.8 90 90 E 3 6 30.27 1025 2 3 0.01 0.25
7:38 am 07:38 Cloudy with Mist and Fog 48 9 46 8 94 94 E 3 6 30.27 1025 2 3 0.00 0.00
7:45 am 07:45 Cloudy with Mist and Fog 49 9.4 46 7.8 90 90 E 5 7 30.27 1025 2 3 0.01 0.25
7:53 am 07:53 Cloudy with Mist and Fog 49 9.4 46 7.8 90 90 Calm 30.28 1026 2 3 0.01 0.25
8:53 am 08:53 Cloudy with Mist and Fog 49 9.4 46 7.8 90 90 Calm 30.28 1025 3 4 0.00 0.00
9:44 am 09:44 Cloudy with Mist and Fog 48 9 46 8 94 94 WNW 3 6 30.27 1025 3 4 0.00 0.00
9:53 am 09:53 Cloudy with Mist and Fog 49 9.4 46 7.8 90 90 WNW 5 7 30.28 1025 3 4 0.00 0.00
10:03 am 10:03 Cloudy with Mist and Fog 48 9 46 8 94 94 W 5 7 30.27 1025 2 3 0.00 0.00
10:26 am 10:26 Cloudy with Mist and Fog 50 10 46 8 88 88 WNW 5 7 30.30 1026 2 2 0.00 0.00
10:38 am 10:38 Cloudy with Mist and Fog 50 10 46 8 88 88 W 3 6 30.27 1025 2 3 0.00 0.00
10:53 am 10:53 Cloudy with Mist and Fog 50 10 47 8.3 89 89 Calm 30.28 1026 2 3 0.00 0.00
11:53 am 11:53 Cloudy with Mist and Fog 51 10.6 48 8.9 89 89 Calm 30.26 1025 2 3 0.00 0.00
12:00 pm 12:00 Cloudy with Mist and Fog 52 11 48 9 88 88 E 3 6 30.27 1025 3 5 0.00 0.00
12:14 pm 12:14 Cloudy with Mist and Fog 52 11 48 9 88 88 ESE 5 7 30.27 1025 3 4 0.00 0.00
12:26 pm 12:26 Cloudy with Mist and Fog 52 11 48 9 88 88 ENE 3 6 30.24 1024 2 2 0.00 0.00
12:46 pm 12:46 Cloudy with Mist and Fog 52 11 48 9 88 88 E 5 7 30.24 1024 3 4 0.00 0.00
12:53 pm 12:53 Cloudy with Mist and Fog 51 10.6 48 8.9 89 89 ESE 5 7 30.24 1024 3 4 0.00 0.00
1:11 pm 13:11 Cloudy with Mist and Fog 51 10.6 49 9.4 92 92 E 3 6 30.24 1024 3 5 0.00 0.00
1:53 pm 13:53 Cloudy with Mist and Fog 51 10.6 49 9.4 92 92 SE 3 6 30.22 1023 4 6 0.00 0.00
2:28 pm 14:28 Cloudy with Mist and Fog 52 11 48 9 88 88 Calm 30.24 1024 2 3 0.00 0.00
2:53 pm 14:53 Cloudy with Mist and Fog 52 11.1 49 9.4 89 89 Calm 30.22 1023 3 5 0.00 0.00
2:56 pm 14:56 Cloudy with Mist and Fog 52 11 48 9 88 88 Calm 30.21 1023 2 3 0.00 0.00
3:03 pm 15:03 Cloudy with Mist and Fog 52 11 48 9 88 88 Calm 30.21 1023 2 3 0.00 0.00
3:53 pm 15:53 Cloudy with Mist and Fog 52 11.1 49 9.4 89 89 Calm 30.23 1024 2 3 0.00 0.00
4:45 pm 16:45 Cloudy with Mist and Fog 52 11.1 49 9.4 89 89 Calm 30.24 1024 2 3 0.00 0.00
4:53 pm 16:53 Cloudy with Mist and Fog 52 11.1 49 9.4 89 89 Calm 30.23 1024 2 3 0.00 0.00
5:28 pm 17:28 Cloudy with Mist and Fog 52 11 48 9 88 88 NE 3 6 30.24 1024 2 3 0.00 0.00
5:53 pm 17:53 Cloudy with Mist and Fog 52 11.1 49 9.4 89 89 ESE 3 6 30.24 1024 2 3 0.00 0.00
6:00 pm 18:00 Cloudy 52 11 48 9 88 88 ESE 5 7 30.24 1024 8 13 0.00 0.00
6:53 pm 18:53 Cloudy 52 11.1 49 9.4 89 89 Calm 30.24 1024 7 11 0.00 0.00
7:13 pm 19:13 Cloudy with Mist and Fog 52 11.1 49 9.4 89 89 Calm 30.24 1024 5 8 0.00 0.00
7:28 pm 19:28 Cloudy with Mist and Fog 52 11 48 9 88 88 Calm 30.24 1024 6 10 0.00 0.00
7:53 pm 19:53 Cloudy with Mist and Fog 52 11.1 49 9.4 89 89 Calm 30.24 1024 6 10 0.00 0.00
8:34 pm 20:34 Cloudy with Mist and Fog 52 11 48 9 88 88 Calm 30.24 1024 5 8 0.00 0.00
8:43 pm 20:43 Cloudy with Mist and Fog 52 11.1 49 9.4 89 89 Calm 30.24 1024 5 8 0.00 0.00
8:53 pm 20:53 Cloudy with Mist and Fog 52 11.1 49 9.4 89 89 Calm 30.26 1025 5 8 0.00 0.00
9:53 pm 21:53 Cloudy with Mist and Fog 52 11.1 49 9.4 89 89 Calm 30.25 1025 6 10 0.00 0.00
10:10 pm 22:10 Cloudy with Mist and Fog 52 11 48 9 88 88 NNE 3 6 30.24 1024 6 10 0.00 0.00
10:53 pm 22:53 Cloudy with Mist and Fog 52 11.1 49 9.4 89 89 Calm 30.24 1024 5 8 0.00 0.00
11:34 pm 23:34 Cloudy with Mist and Fog 52 11 48 9 88 88 WNW 3 6 30.24 1024 3 4 0.00 0.00
11:53 pm 23:53 Cloudy with Mist and Fog 52 11.1 49 9.4 89 89 WNW 3 6 30.26 1025 3 5 0.00 0.00

Powered by AerisWeather